7 * 24
多渠道服务支持
STARLINK-37218(NORAD编号68403)是美国SpaceX公司星链(Starlink)低轨互联网星座中的一颗卫星。2025年12月,该卫星突发异常,轨道高度骤降约4000米,SpaceX判断其可能发生了内部爆炸,卫星随即与地面失联,并产生了数十块碎片。 星链官方称该卫星大致保持完整,处于翻滚状态,预计几周内会再入大气层完全烧毁。目前SpaceX正联合美国太空军、NASA持续监测碎片,这一事件再次引发外界对低轨星座太空碎片问题的关注。
美国
(US)
| 数据来源 | 国际轨道数据 |
| 星历时间: | 2026-09-12T10:47:52+0800 5小时前 查看轨道信息 |
| 半长轴: | 6843.672km |
| 偏心率: | 0.0001285 |
| 轨道倾角: | 97.286° |
| 近地点辐角 | 83.306° |
| 升交点赤经 | 39.137° |
| 平近点角 | 276.833° |
| 近地点: | 464.655km |
| 远地点: | 466.415km |
| 周期: | 93.906分钟 |
| 每日圈数: | 15.334478 |